Weather History for Torrington, WY

Change the Weather History Date:

Friday, September 27, 2013

  Actual Average Record
Temperature  
Mean Temperature 44 °F 56 °F  
Max Temperature 51 °F 72 °F 90 °F (2001)
Min Temperature 37 °F 40 °F 31 °F (2006)
Degree Days  
Heating Degree Days 21 10  
Month to date heating degree days 81 142  
Since 1 July heating degree days 83 164  
Cooling Degree Days 0 0  
Month to date cooling degree days 120 44  
Year to date cooling degree days 893 677  
Moisture  
Dew Point 40 °F    
Average Humidity 80    
Maximum Humidity 96    
Minimum Humidity 63    
Precipitation  
Precipitation 0.13 in 0.04 in 0.13 in (2013)
Month to date precipitation 2.37 1.23  
Year to date precipitation 9.18 12.19  
Sea Level Pressure  
Sea Level Pressure 29.86 in    
Wind  
Wind Speed 8 mph (North)    
Max Wind Speed 18 mph    
Max Gust Speed 23 mph    
Visibility 8 miles    
Events Rain    
T = Trace of Precipitation, MM = Missing Value Source: NWS Daily Summary

Daily Weather History Graph

Daily Weather History Graph

Search for Another Location

Airport:

Trip Planner

Search our weather history database for the weather conditions in past years. The results will help you decide how hot, cold, wet, or windy it might be!

Date:

Astronomy

Sep. 27, 2013 Rise Set
Actual Time 6:49 AM MDT 6:44 PM MDT
Civil Twilight 6:21 AM MDT 7:12 PM MDT
Nautical Twilight 5:49 AM MDT 7:44 PM MDT
Astronomical Twilight 5:16 AM MDT 8:17 PM MDT
Moon No Moon Rise 2:30 PM MDT
Length of Visible Light 12h 50m
Length of Day
11h 54m
Last Quarter, 44% of the Moon is Illuminated
Sep 27
Last Quarter
Oct 4
New
Oct 11
First Quarter
Oct 18
Full
Oct 26
Last Quarter

Hourly Weather History & Observations

Time (MDT) Temp. Windchill Dew Point Humidity Pressure Visibility Wind Dir Wind Speed Gust Speed Precip Events Conditions
12:53 AM 51.1 °F - 39.9 °F 66% 29.71 in 10.0 mi NE 8.1 mph - N/A   Overcast
1:53 AM 50.0 °F - 41.0 °F 71% 29.72 in 10.0 mi NE 8.1 mph - N/A   Overcast
2:25 AM 48.2 °F - 39.2 °F 71% 29.82 in 10.0 mi NNE 8.1 mph - N/A   Overcast
2:53 AM 48.0 °F - 39.0 °F 71% 29.73 in 10.0 mi North 11.5 mph - N/A   Overcast
3:53 AM 48.0 °F - 39.0 °F 71% 29.73 in 10.0 mi North 17.3 mph - N/A   Overcast
4:53 AM 46.0 °F 41.0 °F 39.0 °F 76% 29.75 in 10.0 mi North 10.4 mph - N/A   Overcast
5:43 AM 42.8 °F 37.0 °F 41.0 °F 93% 29.84 in 4.0 mi North 10.4 mph - 0.00 in Rain Light Rain
5:53 AM 43.0 °F 38.2 °F 41.0 °F 93% 29.77 in 4.0 mi North 8.1 mph - 0.00 in Rain Light Rain
6:10 AM 42.8 °F 37.0 °F 41.0 °F 93% 29.85 in 4.0 mi NNE 10.4 mph - 0.00 in Rain Light Rain
6:23 AM 42.8 °F 37.0 °F 41.0 °F 93% 29.84 in 4.0 mi NNE 10.4 mph - 0.00 in Rain Light Rain
6:35 AM 42.8 °F 38.0 °F 41.0 °F 93% 29.84 in 5.0 mi NE 8.1 mph - 0.00 in   Overcast
6:53 AM 42.1 °F 36.6 °F 41.0 °F 96% 29.78 in 4.0 mi NNE 9.2 mph - 0.01 in   Overcast
7:24 AM 42.8 °F 38.0 °F 39.2 °F 87% 29.86 in 5.0 mi NNE 8.1 mph - N/A   Overcast
7:34 AM 42.8 °F 36.2 °F 39.2 °F 87% 29.85 in 5.0 mi NNE 12.7 mph - 0.00 in Rain Light Rain
7:43 AM 42.8 °F 37.5 °F 39.2 °F 87% 29.86 in 2.5 mi NNE 9.2 mph - 0.00 in Rain Light Rain
7:53 AM 42.1 °F 38.4 °F 39.9 °F 92% 29.81 in 2.0 mi North 5.8 mph - 0.00 in Rain Light Rain
8:43 AM 42.8 °F 40.1 °F 41.0 °F 93% 29.89 in 3.0 mi North 4.6 mph - 0.02 in Rain Light Rain
8:53 AM 42.1 °F 39.2 °F 41.0 °F 96% 29.84 in 4.0 mi North 4.6 mph - 0.02 in   Overcast
9:21 AM 42.8 °F 38.6 °F 39.2 °F 87% 29.89 in 6.0 mi North 6.9 mph - N/A   Overcast
9:53 AM 43.0 °F 37.7 °F 41.0 °F 93% 29.86 in 10.0 mi NNE 9.2 mph - N/A   Overcast
10:53 AM 44.1 °F 38.1 °F 41.0 °F 89% 29.85 in 10.0 mi NNE 11.5 mph - N/A   Overcast
11:11 AM 44.6 °F 37.8 °F 39.2 °F 81% 29.88 in 10.0 mi North 15.0 mph - N/A   Overcast
11:53 AM 45.0 °F 38.9 °F 39.9 °F 82% 29.84 in 10.0 mi NNE 12.7 mph - N/A   Overcast
12:53 PM 46.0 °F 41.0 °F 39.9 °F 79% 29.83 in 10.0 mi NNE 10.4 mph - N/A   Overcast
1:53 PM 46.0 °F 42.5 °F 39.0 °F 76% 29.83 in 10.0 mi North 6.9 mph - 0.00 in Rain Light Rain
2:53 PM 45.0 °F 40.1 °F 39.9 °F 82% 29.86 in 10.0 mi ENE 9.2 mph - 0.01 in Rain Light Rain
3:02 PM 44.6 °F 40.2 °F 39.2 °F 81% 29.88 in 9.0 mi East 8.1 mph - 0.02 in Rain Light Rain
3:31 PM 44.6 °F 41.4 °F 41.0 °F 87% 29.88 in 10.0 mi East 5.8 mph - 0.04 in Rain Light Rain
3:38 PM 44.6 °F 40.2 °F 41.0 °F 87% 29.88 in 10.0 mi ENE 8.1 mph - 0.05 in Rain Light Rain
3:53 PM 44.1 °F 40.8 °F 41.0 °F 89% 29.87 in 10.0 mi ENE 5.8 mph - 0.05 in Rain Light Rain
4:11 PM 44.6 °F 40.7 °F 41.0 °F 87% 29.88 in 10.0 mi NE 6.9 mph - 0.01 in Rain Light Rain
4:53 PM 44.1 °F 40.8 °F 41.0 °F 89% 29.89 in 10.0 mi North 5.8 mph - 0.02 in Rain Light Rain
5:04 PM 44.6 °F 43.1 °F 41.0 °F 87% 29.91 in 10.0 mi NNW 3.5 mph - 0.00 in Rain Light Rain
5:20 PM 44.6 °F 42.2 °F 41.0 °F 87% 29.92 in 10.0 mi NW 4.6 mph - 0.00 in Rain Light Rain
5:53 PM 44.1 °F 41.5 °F 41.0 °F 89% 29.92 in 10.0 mi NNW 4.6 mph - 0.02 in Rain Light Rain
6:53 PM 44.1 °F 41.5 °F 41.0 °F 89% 29.94 in 10.0 mi NW 4.6 mph - 0.00 in   Overcast
7:00 PM 44.6 °F - 41.0 °F 87% 29.94 in 10.0 mi Calm Calm - N/A   Overcast
7:53 PM 43.0 °F 37.7 °F 39.9 °F 89% 29.96 in 10.0 mi NW 9.2 mph - N/A   Overcast
8:51 PM 42.8 °F 35.8 °F 37.4 °F 81% 29.96 in 10.0 mi NW 13.8 mph - N/A   Overcast
8:53 PM 42.1 °F 34.5 °F 36.0 °F 79% 29.96 in 10.0 mi NW 15.0 mph 20.7 mph N/A   Overcast
9:53 PM 41.0 °F 35.8 °F 37.0 °F 86% 29.99 in 10.0 mi NW 8.1 mph - N/A   Partly Cloudy
10:53 PM 39.9 °F 36.7 °F 36.0 °F 86% 29.98 in 10.0 mi WNW 4.6 mph - N/A   Clear
11:53 PM 39.0 °F 35.7 °F 36.0 °F 89% 29.99 in 10.0 mi SW 4.6 mph - N/A   Clear